{"data":{"norad_id":38093,"epoch":"2026-05-25T03:18:38.663136Z","epoch_age_seconds":67146,"freshness":"FRESH","line1":"1 38093U 12009A   26145.13794749 -.00000130  00000+0  00000+0 0  9990","line2":"2 38093   5.4299  47.1690 0059169   0.0790 145.2198  1.00271583 52214","mean_motion":1.00271583,"eccentricity":0.0059169,"inclination_deg":5.4299,"raan_deg":47.169,"arg_perigee_deg":0.079,"mean_anomaly_deg":145.2198,"bstar":0,"rev_number":5221,"period_min":1436.0997970881,"perigee_km":35537.166751615,"apogee_km":36036.136426822,"semimajor_km":42164.788589219,"source":"CELESTRAK","updated_at":"2026-05-25T13:38:13.908679Z"}}